SCP
0 0 0 0 0 0 0 0 0 -0 -0 0 0 0 0 0 0 0 0 -0 -0 -0 -0 -0 -0 0 0 -0 0 0 0 0 0 0 0 0 0 0 0 0 0 0 0 0 0 0 0
0 0 0 0 0 0 0 0 0 0 0 0 0 0 0 0 0 0 0 0 0 0 0 0 -0 -0 -0 -0 -0 -0 0 0 0 0 0 0 0 0 0 0 0 0 0 0 0 0 0
0 0 0 0 0 0 0 0 0 0 0 0 0 0 0 0 0 0 0 0 0 0 0 -0 -0 0 0 0 -0 -0 0 0 0 0 0 0 0 0 0 0 0 0 0 0 0 0 0
0 0 0 0 0 0 0 0 0 0 0 0 0 0 0 0 0 0 0 -0 0 -0 -0 -0 0 0 0 -0 -0 -0 0 0 0 0 0 0 0 0 0 0 0 0 0 0 0 0 0
0 0 0 0 0 0 0 0 0 0 0 0 0 0 0 0 0 0 0 0 -0 -0 0 0 -0 0 0 0 -0 0 -0 0 0 0 0 0 0 0 0 0 0 0 0 0 0 0 0
0 0 0 0 0 0 0 0 0 0 0 0 0 0 0 0 0 0 0 -0 0 0 0 -0 0 0 0 0 0 0 0 0 0 0 0 0 0 0 0 0 0 0 0 0 0 0 0
0 0 0 0 0 0 0 0 0 0 0 0 0 0 0 0 0 0 0 0 0 0 0 0 0 0 0 0 0 0 -0 0 0 0 0 0 0 0 0 0 0 0 0 0 0 0 0
0 0 0 0 0 0 0 0 0 0 0 0 0 0 0 0 0 -0 -0 0 0 0 0 0 -0 0 0 0 0 0 -0 0 0 0 0 0 0 0 0 0 0 0 0 0 0 0 0
0 0 0 0 0 0 0 0 0 0 0 0 0 0 0 -0 -0 -0 0 0 0 0 0 -0 0 0 0 0 0 0 0 -0 0 0 0 0 0 0 0 0 0 0 0 0 0 0 0
0 0 0 0 0 0 0 0 0 0 0 0 0 0 0 -0 0 0 0 0 0 0 0 0 0 0 0 0 0 -0 0 -0 -0 0 -0 0 0 0 0 0 0 0 0 0 0 0 0
0 0 0 0 0 0 0 0 0 0 0 0 0 0 0 0 0 0 0 0 0 0 0 0 0 0 -0 0 -0 0 0 0 0 0 0 0 0 0 -0 0 0 0 0 0 0 0 0
0 0 0 0 0 0 0 0 0 0 0 0 0 0 -0 0 0 0 0 0 0 0 0 0 0 0 -0 -0 0 0 0 -0 0 0 0 0 0 0 0 -0 0 0 0 0 0 0 0
0 0 0 0 0 0 0 0 0 0 0 0 0 0 -0 0 0 0 0 0 0 0 0 -0 0 -0 -0 0 0 -0 -0 0 0 0 0 -0 0 0 0 0 0 0 0 0 0 0 0
0 0 0 0 0 0 0 0 0 0 0 0 0 -0 0 0 0 0 0 0 0 0 -0 0 0 -0 0 -0 0 0 -0 -0 -0 -0 -0 0 0 0 0 0 0 0 0 0 0 0 0
0 0 0 0 0 0 0 0 0 0 0 0 0 0 0 0 0 0 0 0 0 0 -0 0 0 -0 0 0 0 0 0 0 0 -0 -0 0 0 0 0 0 0 0 0 0 0 0 0
0 0 0 0 0 0 0 0 0 0 0 0 0 0 0 0 0 0 0 0 0 0 0 -0 0 -0 0 0 0 0 0 0 0 -0 -0 -0 0 -0 0 0 0 0 0 0 0 0 0
0 0 0 0 0 0 0 0 0 0 0 0 0 0 0 0 0 0 0 0 0 0 -0 -0 0 0 0 0 0 0 0 0 -0 -0 0 0 -0 0 0 0 0 0 0 0 0 0 0
0 0 0 0 0 0 0 0 0 0 0 0 0 0 0 0 0 0 0 -0 0 0 -0 -0 0 0 0 0 0 0 0 0 0 -0 -0 -0 -0 -0 0 0 0 0 0 0 0 0 0
0 0 0 0 0 0 0 0 0 0 0 0 0 0 0 0 0 0 -0 -0 -0 0 -0 -0 -0 0 0 0 0 0 0 0 0 -0 0 -0 -0 -0 -0 0 0 0 0 0 0 0 0
0 0 0 0 0 0 0 0 0 0 0 0 0 0 0 0 0 0 -0 -0 0 0 0 0 -0 -0 0 0 0 0 0 0 -0 -0 0 -0 -0 -0 0 -0 0 0 0 0 0 0 0
0 0 0 0 0 0 0 0 0 0 -0 0 0 0 0 0 0 0 -0 -0 -0 -0 0 -0 0 0 -0 0 0 0 0 0 -0 0 0 -0 -0 -0 -0 -0 -0 0 0 0 0 0 0
0 0 0 0 0 0 0 0 0 0 0 0 0 0 0 0 0 0 -0 -0 -0 -0 -0 0 0 -0 -0 0 0 -0 -0 -0 0 0 0 0 -0 0 0 -0 0 0 0 0 0 0 0
0 0 0 0 0 0 0 0 0 0 0 0 0 0 0 0 0 0 -0 -0 0 0 0 0 -0 -0 -0 -0 -0 -0 -0 -0 -0 0 0 0 0 0 -0 -0 -0 -0 0 0 0 0 0
0 0 0 0 0 0 0 0 0 0 0 0 0 0 0 0 0 -0 0 -0 0 0 0 0 -0 -0 -0 -0 -0 -0 -0 -0 0 0 0 0 0 0 0 0 -0 0 0 0 0 0 0
0 0 0 0 0 0 0 0 0 0 0 0 0 0 0 0 0 0 0 0 0 0 0 0 -0 -0 -0 -0 0 0 0 0 0 -0 0 -0 0 0 0 0 0 0 0 0 0 0 0
0 0 0 0 0 0 0 0 0 0 0 0 0 0 0 0 0 -0 -0 0 0 0 0 -0 -0 -0 -0 -0 0 -0 0 0 0 0 -0 0 0 0 0 0 1 0 0 0 0 0 0
0 0 0 0 0 0 0 0 0 0 0 0 0 0 0 0 0 -0 -0 0 0 0 0 -0 -0 -0 -0 -0 0 0 0 0 0 0 0 0 0 0 0 0 0 0 0 0 0 0 0
0 0 0 0 0 0 0 0 0 0 0 0 0 0 0 0 0 0 0 -0 0 0 0 -0 -0 0 -0 -0 -0 0 0 0 0 0 0 0 0 0 0 0 0 -0 0 0 0 0 0
0 0 0 0 0 0 0 0 0 0 0 0 0 0 0 0 0 0 -0 -0 -0 0 0 0 0 0 -0 -0 -0 0 0 0 0 0 -0 0 0 0 0 0 0 0 0 0 0 0 0
Wind_Speed_500mb
46 47 46 43 42 43 42 42 42 41 41 42 45 48 49 51 53 53 50 47 44 43 44 44 50 41 33 37 61 53 57 40 25 15 39 51 66 71 62 56 65 65 55 53 59 61 37
49 49 46 45 46 44 44 44 44 44 46 48 48 52 59 62 65 65 63 57 46 47 53 46 44 33 35 54 56 52 51 44 40 38 43 49 50 70 59 64 60 55 61 59 47 46 47
52 50 49 48 48 48 48 49 49 51 52 52 55 60 64 66 65 63 58 52 51 58 54 46 37 28 40 80 43 49 40 43 46 56 56 56 57 52 76 54 72 51 49 43 55 46 48
55 52 51 51 50 50 51 49 50 52 53 56 61 65 68 69 66 63 57 52 59 44 40 29 32 20 32 33 32 47 51 61 48 44 57 59 54 63 57 59 28 53 47 47 48 58 47
56 54 54 55 54 53 51 52 53 54 56 60 64 67 70 69 64 61 59 62 43 36 34 18 11 17 32 20 22 25 22 49 59 55 40 48 65 62 51 46 44 35 52 65 52 54 47
57 57 57 56 56 54 53 54 54 55 58 64 68 73 74 73 65 59 55 52 41 37 17 21 21 15 30 35 27 15 12 25 37 55 60 41 45 42 46 42 52 62 56 48 53 48 53
59 59 58 56 55 55 55 55 56 58 63 68 72 75 77 69 60 46 54 51 52 17 16 45 48 46 56 33 33 52 52 33 29 42 52 61 36 52 76 71 52 48 47 53 40 47 41
60 59 58 56 56 56 56 57 58 61 64 69 73 76 74 62 43 29 35 29 30 26 37 52 55 56 46 31 29 28 30 16 24 33 40 49 54 59 58 63 63 62 55 51 48 37 41
60 60 60 58 57 55 56 57 59 62 66 71 75 79 68 43 31 27 32 25 32 26 16 28 23 16 17 17 14 39 23 44 28 39 39 49 64 60 57 58 64 58 61 43 42 32 35
61 61 61 58 57 56 57 59 61 65 68 73 77 78 52 44 23 35 18 40 29 15 9 14 7 7 15 17 17 31 10 33 38 47 40 45 57 50 66 60 55 53 57 50 36 40 31
60 61 60 59 58 58 59 61 64 68 71 75 79 69 39 32 35 27 40 38 24 9 11 18 16 24 50 36 57 5 26 7 30 49 42 35 51 58 63 69 60 48 48 51 39 43 33
60 61 60 59 59 60 61 63 66 71 74 77 81 57 26 24 26 29 39 30 10 8 14 27 32 42 45 49 7 18 16 21 6 20 51 51 46 50 45 62 61 50 43 47 34 33 27
59 61 59 59 61 61 63 65 68 72 76 80 82 41 19 19 35 44 32 18 12 19 40 29 49 57 42 32 25 21 19 16 13 12 40 48 51 46 42 45 61 48 41 33 29 27 34
57 59 59 60 62 63 64 66 68 73 78 82 77 18 19 22 45 31 23 11 21 40 37 48 41 50 3 25 29 20 30 21 34 31 20 37 38 48 35 41 41 54 49 34 57 44 40
57 59 59 59 61 63 65 67 69 73 79 84 64 19 13 42 38 19 30 11 15 29 36 29 45 27 31 34 29 17 19 7 8 28 15 29 40 49 45 29 52 66 52 59 41 39 32
56 59 58 58 60 62 65 67 68 74 80 79 45 23 11 47 26 24 15 8 19 17 32 27 10 20 34 37 28 30 21 12 11 16 9 15 30 54 47 43 42 54 54 52 39 43 42
55 58 57 57 59 62 64 65 68 74 81 71 29 19 26 40 20 31 8 14 33 46 50 6 18 13 20 24 20 16 5 8 8 14 23 12 14 38 46 39 49 32 41 46 46 27 38
54 57 56 55 57 60 63 64 66 71 80 57 27 13 34 42 23 19 18 25 38 38 50 15 12 10 8 18 12 16 14 2 17 18 5 10 11 29 57 46 54 49 56 61 26 48 29
52 54 55 55 56 58 61 62 63 67 61 50 37 23 17 28 12 19 23 31 32 39 41 16 14 7 4 12 15 22 20 27 8 22 6 11 9 24 42 11 20 37 54 51 45 29 41
50 53 54 53 53 56 58 58 61 61 52 35 29 13 20 17 16 27 32 25 35 44 35 34 26 24 16 21 12 18 23 18 51 19 31 16 10 37 34 46 48 54 43 44 43 29 17
50 52 51 51 50 54 56 55 58 56 42 40 26 12 11 14 21 31 24 27 45 31 22 37 13 30 42 12 22 9 27 25 21 5 11 7 17 26 10 25 44 46 54 56 51 27 30
49 51 52 51 50 52 53 47 50 53 33 21 24 18 23 40 30 25 13 33 36 50 35 19 16 51 37 18 20 38 37 27 10 13 4 15 10 29 15 27 47 44 50 51 42 31 15
47 49 50 49 48 50 50 41 42 44 42 18 22 22 13 30 29 22 26 34 41 41 23 49 49 39 40 37 59 64 57 50 32 11 13 11 13 9 17 42 54 50 46 45 22 18 14
44 47 48 47 46 47 43 37 37 34 28 24 20 22 12 14 24 28 37 41 42 42 31 55 51 37 50 67 63 43 40 34 9 11 13 12 5 9 9 33 16 30 38 35 10 26 17
43 45 46 47 45 44 39 36 34 30 25 24 22 17 10 13 39 31 42 39 50 45 36 40 63 70 53 44 13 14 3 6 13 26 12 31 11 12 11 7 19 24 25 29 6 29 44
41 43 44 45 45 43 37 35 33 28 24 23 22 16 16 14 7 38 45 37 30 27 29 47 56 47 44 7 8 9 9 10 10 19 36 7 11 11 10 8 8 9 32 30 14 23 42
40 41 43 43 42 41 36 32 33 30 24 24 21 18 24 15 28 38 23 19 25 26 11 34 71 24 40 15 10 11 6 16 12 16 14 11 12 9 19 12 10 21 39 26 7 16 57
39 39 41 40 39 38 35 31 31 30 25 26 25 21 21 17 54 21 23 47 50 41 14 53 22 9 10 18 12 10 7 11 9 8 13 13 14 12 9 11 11 49 13 9 4 59 59
37 37 37 38 39 37 33 29 28 29 30 27 18 27 34 31 56 60 35 31 29 35 39 16 12 18 8 6 6 7 6 7 14 8 22 10 13 7 13 8 19 36 20 24 36 54 54
Wind_Direction_500mb
15 11 9 9 8 6 2 359 356 353 349 346 344 339 336 333 330 329 329 326 320 312 308 303 297 295 299 258 248 274 283 283 274 215 212 215 218 223 221 227 218 223 231 236 236 251 227
12 10 9 8 7 4 0 357 356 356 352 348 347 345 340 337 339 338 336 334 332 325 318 308 304 287 262 260 265 262 264 258 252 244 233 224 225 223 236 229 230 222 230 237 250 235 236
10 9 8 6 5 3 0 358 358 356 351 349 349 343 339 335 337 334 331 326 327 322 316 316 310 262 251 251 276 263 258 252 245 236 241 231 228 221 225 227 235 231 233 233 234 229 237
9 8 6 4 3 2 0 359 358 354 352 350 346 340 337 333 335 331 326 322 324 312 319 311 305 241 249 284 299 272 266 254 246 237 234 235 232 239 228 234 224 231 236 230 216 225 222
8 7 5 3 3 2 1 360 357 355 352 347 344 339 335 330 331 326 323 324 327 300 315 301 269 214 271 326 294 299 249 251 245 238 243 233 233 232 233 229 220 213 220 224 227 208 215
7 6 5 4 2 2 1 358 356 354 351 346 343 340 336 330 328 325 325 332 330 286 275 266 265 241 234 305 297 250 293 268 239 229 235 226 225 223 226 217 214 206 216 221 218 206 206
5 6 5 3 2 1 359 355 353 353 350 346 343 340 336 332 328 330 337 343 357 302 227 288 263 258 288 296 300 260 264 291 235 220 211 215 215 209 213 219 226 226 222 219 211 223 197
4 5 3 2 1 359 356 354 352 351 348 345 342 340 337 338 339 349 351 340 341 305 299 289 264 259 268 287 291 302 232 169 212 212 226 210 222 225 219 217 227 232 238 214 218 197 186
2 1 2 2 360 355 353 352 349 348 347 343 342 340 337 344 347 352 329 335 326 317 287 300 233 259 260 281 299 284 233 217 202 230 220 208 216 225 232 223 215 218 227 232 196 178 206
0 360 359 360 357 353 351 351 347 347 346 343 342 339 336 336 328 329 336 331 326 328 283 63 262 310 272 270 278 248 216 238 231 242 198 229 206 214 227 231 219 211 218 231 184 183 204
358 358 356 357 356 352 351 350 346 345 346 344 342 339 335 342 330 341 326 326 315 318 299 11 27 317 300 264 268 225 214 220 255 249 246 220 228 213 199 218 221 220 205 221 201 205 201
356 355 354 355 355 353 350 348 345 343 346 344 343 338 335 349 320 315 321 319 311 239 348 343 338 320 315 322 63 141 182 200 20 265 253 247 240 228 228 198 225 215 207 206 214 213 206
354 353 353 353 354 353 351 349 345 344 346 344 343 338 358 346 327 323 317 301 282 351 350 346 325 329 316 308 314 202 202 170 176 175 230 232 233 246 219 193 204 211 200 189 194 195 207
353 352 352 353 353 353 352 349 345 345 347 344 343 345 339 342 326 320 318 272 311 2 353 333 326 312 179 6 335 319 279 271 209 216 213 215 217 222 203 207 193 197 180 195 179 195 197
350 350 351 353 351 352 353 350 348 347 349 345 344 347 325 332 336 332 292 316 6 341 336 324 318 333 348 355 339 306 289 249 195 217 210 214 212 184 242 186 213 186 201 208 198 201 196
349 349 350 351 351 352 354 351 351 351 349 347 346 338 315 340 331 323 335 346 340 332 340 329 298 332 329 342 329 332 321 62 350 253 224 296 230 182 192 178 218 190 206 202 226 196 220
348 348 349 350 350 353 353 351 354 354 350 353 354 307 346 345 323 340 32 324 322 330 337 289 292 287 302 326 303 291 344 17 337 302 244 323 250 213 185 199 193 196 193 216 224 231 203
347 347 348 348 349 353 352 352 357 358 353 4 340 337 338 1 35 2 5 333 306 327 339 342 284 276 281 309 290 293 357 234 313 330 246 230 260 196 190 179 221 194 202 208 209 227 249
345 346 347 347 348 352 354 352 359 3 2 351 334 314 353 8 23 1 347 308 346 341 337 345 300 274 256 294 303 299 314 336 258 334 202 221 220 196 195 187 266 244 198 207 221 237 220
343 345 346 346 347 351 352 354 358 6 10 4 332 344 348 320 4 359 332 336 336 345 327 333 297 316 306 300 283 284 299 320 320 293 246 243 260 202 187 191 182 214 199 200 206 238 214
342 345 345 345 346 348 350 354 359 9 19 14 12 15 9 319 340 311 352 317 340 340 326 314 285 327 325 300 302 258 314 311 306 342 357 128 232 186 92 222 195 198 201 194 216 213 217
341 343 344 345 345 347 348 353 0 6 28 6 0 354 330 293 295 314 354 348 329 331 330 307 296 319 316 303 292 299 304 306 283 317 292 204 245 145 200 256 233 197 211 186 191 209 75
340 341 343 343 344 346 347 355 1 6 25 9 351 345 307 300 337 341 353 330 330 323 323 322 327 317 320 319 309 295 285 275 260 281 313 309 186 112 195 211 182 196 196 192 121 224 147
336 339 340 340 342 343 347 354 357 2 14 353 337 341 324 314 330 335 322 347 323 325 327 318 327 334 314 317 309 282 255 261 265 287 253 319 143 155 112 105 169 196 141 212 140 25 124
333 334 338 339 341 342 345 346 348 354 353 353 330 337 321 295 322 312 343 330 316 338 335 322 334 328 324 320 323 326 72 349 306 294 237 211 203 124 139 125 124 61 133 166 44 95 120
328 333 335 338 338 341 342 343 345 349 345 351 329 294 322 297 325 328 324 324 329 333 322 326 337 340 344 311 313 345 2 322 320 327 23 39 156 105 114 126 102 345 350 9 120 100 126
323 329 333 336 334 337 339 341 343 345 346 344 319 317 305 271 286 314 309 312 304 319 282 307 342 331 360 339 351 6 337 351 353 5 346 1 356 162 112 81 98 346 322 292 80 116 139
317 326 331 330 328 332 336 338 340 341 341 338 320 309 292 281 297 277 299 299 309 313 315 309 326 27 326 3 0 352 339 358 344 30 0 5 323 28 19 99 76 344 358 25 257 131 131
313 322 327 327 324 327 329 329 330 333 332 332 317 314 309 278 282 296 292 288 277 307 310 312 283 299 323 325 359 311 334 337 338 19 10 37 2 30 32 63 345 342 1 93 113 118 133
Wind_Speed_850mb
46 47 46 43 42 43 42 42 42 41 41 42 45 48 49 51 53 53 50 47 44 43 44 44 50 41 33 37 61 53 57 40 25 15 39 51 66 71 62 56 65 65 55 53 59 61 37
49 49 46 45 46 44 44 44 44 44 46 48 48 52 59 62 65 65 63 57 46 47 53 46 44 33 35 54 56 52 51 44 40 38 43 49 50 70 59 64 60 55 61 59 47 46 47
52 50 49 48 48 48 48 49 49 51 52 52 55 60 64 66 65 63 58 52 51 58 54 46 37 28 40 80 43 49 40 43 46 56 56 56 57 52 76 54 72 51 49 43 55 46 48
55 52 51 51 50 50 51 49 50 52 53 56 61 65 68 69 66 63 57 52 59 44 40 29 32 20 32 33 32 47 51 61 48 44 57 59 54 63 57 59 28 53 47 47 48 58 47
56 54 54 55 54 53 51 52 53 54 56 60 64 67 70 69 64 61 59 62 43 36 34 18 11 17 32 20 22 25 22 49 59 55 40 48 65 62 51 46 44 35 52 65 52 54 47
57 57 57 56 56 54 53 54 54 55 58 64 68 73 74 73 65 59 55 52 41 37 17 21 21 15 30 35 27 15 12 25 37 55 60 41 45 42 46 42 52 62 56 48 53 48 53
59 59 58 56 55 55 55 55 56 58 63 68 72 75 77 69 60 46 54 51 52 17 16 45 48 46 56 33 33 52 52 33 29 42 52 61 36 52 76 71 52 48 47 53 40 47 41
60 59 58 56 56 56 56 57 58 61 64 69 73 76 74 62 43 29 35 29 30 26 37 52 55 56 46 31 29 28 30 16 24 33 40 49 54 59 58 63 63 62 55 51 48 37 41
60 60 60 58 57 55 56 57 59 62 66 71 75 79 68 43 31 27 32 25 32 26 16 28 23 16 17 17 14 39 23 44 28 39 39 49 64 60 57 58 64 58 61 43 42 32 35
61 61 61 58 57 56 57 59 61 65 68 73 77 78 52 44 23 35 18 40 29 15 9 14 7 7 15 17 17 31 10 33 38 47 40 45 57 50 66 60 55 53 57 50 36 40 31
60 61 60 59 58 58 59 61 64 68 71 75 79 69 39 32 35 27 40 38 24 9 11 18 16 24 50 36 57 5 26 7 30 49 42 35 51 58 63 69 60 48 48 51 39 43 33
60 61 60 59 59 60 61 63 66 71 74 77 81 57 26 24 26 29 39 30 10 8 14 27 32 42 45 49 7 18 16 21 6 20 51 51 46 50 45 62 61 50 43 47 34 33 27
59 61 59 59 61 61 63 65 68 72 76 80 82 41 19 19 35 44 32 18 12 19 40 29 49 57 42 32 25 21 19 16 13 12 40 48 51 46 42 45 61 48 41 33 29 27 34
57 59 59 60 62 63 64 66 68 73 78 82 77 18 19 22 45 31 23 11 21 40 37 48 41 50 3 25 29 20 30 21 34 31 20 37 38 48 35 41 41 54 49 34 57 44 40
57 59 59 59 61 63 65 67 69 73 79 84 64 19 13 42 38 19 30 11 15 29 36 29 45 27 31 34 29 17 19 7 8 28 15 29 40 49 45 29 52 66 52 59 41 39 32
56 59 58 58 60 62 65 67 68 74 80 79 45 23 11 47 26 24 15 8 19 17 32 27 10 20 34 37 28 30 21 12 11 16 9 15 30 54 47 43 42 54 54 52 39 43 42
55 58 57 57 59 62 64 65 68 74 81 71 29 19 26 40 20 31 8 14 33 46 50 6 18 13 20 24 20 16 5 8 8 14 23 12 14 38 46 39 49 32 41 46 46 27 38
54 57 56 55 57 60 63 64 66 71 80 57 27 13 34 42 23 19 18 25 38 38 50 15 12 10 8 18 12 16 14 2 17 18 5 10 11 29 57 46 54 49 56 61 26 48 29
52 54 55 55 56 58 61 62 63 67 61 50 37 23 17 28 12 19 23 31 32 39 41 16 14 7 4 12 15 22 20 27 8 22 6 11 9 24 42 11 20 37 54 51 45 29 41
50 53 54 53 53 56 58 58 61 61 52 35 29 13 20 17 16 27 32 25 35 44 35 34 26 24 16 21 12 18 23 18 51 19 31 16 10 37 34 46 48 54 43 44 43 29 17
50 52 51 51 50 54 56 55 58 56 42 40 26 12 11 14 21 31 24 27 45 31 22 37 13 30 42 12 22 9 27 25 21 5 11 7 17 26 10 25 44 46 54 56 51 27 30
49 51 52 51 50 52 53 47 50 53 33 21 24 18 23 40 30 25 13 33 36 50 35 19 16 51 37 18 20 38 37 27 10 13 4 15 10 29 15 27 47 44 50 51 42 31 15
47 49 50 49 48 50 50 41 42 44 42 18 22 22 13 30 29 22 26 34 41 41 23 49 49 39 40 37 59 64 57 50 32 11 13 11 13 9 17 42 54 50 46 45 22 18 14
44 47 48 47 46 47 43 37 37 34 28 24 20 22 12 14 24 28 37 41 42 42 31 55 51 37 50 67 63 43 40 34 9 11 13 12 5 9 9 33 16 30 38 35 10 26 17
43 45 46 47 45 44 39 36 34 30 25 24 22 17 10 13 39 31 42 39 50 45 36 40 63 70 53 44 13 14 3 6 13 26 12 31 11 12 11 7 19 24 25 29 6 29 44
41 43 44 45 45 43 37 35 33 28 24 23 22 16 16 14 7 38 45 37 30 27 29 47 56 47 44 7 8 9 9 10 10 19 36 7 11 11 10 8 8 9 32 30 14 23 42
40 41 43 43 42 41 36 32 33 30 24 24 21 18 24 15 28 38 23 19 25 26 11 34 71 24 40 15 10 11 6 16 12 16 14 11 12 9 19 12 10 21 39 26 7 16 57
39 39 41 40 39 38 35 31 31 30 25 26 25 21 21 17 54 21 23 47 50 41 14 53 22 9 10 18 12 10 7 11 9 8 13 13 14 12 9 11 11 49 13 9 4 59 59
37 37 37 38 39 37 33 29 28 29 30 27 18 27 34 31 56 60 35 31 29 35 39 16 12 18 8 6 6 7 6 7 14 8 22 10 13 7 13 8 19 36 20 24 36 54 54
Wind_Direction_850mb
15 11 9 9 8 6 2 359 356 353 349 346 344 339 336 333 330 329 329 326 320 312 308 303 297 295 299 258 248 274 283 283 274 215 212 215 218 223 221 227 218 223 231 236 236 251 227
12 10 9 8 7 4 0 357 356 356 352 348 347 345 340 337 339 338 336 334 332 325 318 308 304 287 262 260 265 262 264 258 252 244 233 224 225 223 236 229 230 222 230 237 250 235 236
10 9 8 6 5 3 0 358 358 356 351 349 349 343 339 335 337 334 331 326 327 322 316 316 310 262 251 251 276 263 258 252 245 236 241 231 228 221 225 227 235 231 233 233 234 229 237
9 8 6 4 3 2 0 359 358 354 352 350 346 340 337 333 335 331 326 322 324 312 319 311 305 241 249 284 299 272 266 254 246 237 234 235 232 239 228 234 224 231 236 230 216 225 222
8 7 5 3 3 2 1 360 357 355 352 347 344 339 335 330 331 326 323 324 327 300 315 301 269 214 271 326 294 299 249 251 245 238 243 233 233 232 233 229 220 213 220 224 227 208 215
7 6 5 4 2 2 1 358 356 354 351 346 343 340 336 330 328 325 325 332 330 286 275 266 265 241 234 305 297 250 293 268 239 229 235 226 225 223 226 217 214 206 216 221 218 206 206
5 6 5 3 2 1 359 355 353 353 350 346 343 340 336 332 328 330 337 343 357 302 227 288 263 258 288 296 300 260 264 291 235 220 211 215 215 209 213 219 226 226 222 219 211 223 197
4 5 3 2 1 359 356 354 352 351 348 345 342 340 337 338 339 349 351 340 341 305 299 289 264 259 268 287 291 302 232 169 212 212 226 210 222 225 219 217 227 232 238 214 218 197 186
2 1 2 2 360 355 353 352 349 348 347 343 342 340 337 344 347 352 329 335 326 317 287 300 233 259 260 281 299 284 233 217 202 230 220 208 216 225 232 223 215 218 227 232 196 178 206
0 360 359 360 357 353 351 351 347 347 346 343 342 339 336 336 328 329 336 331 326 328 283 63 262 310 272 270 278 248 216 238 231 242 198 229 206 214 227 231 219 211 218 231 184 183 204
358 358 356 357 356 352 351 350 346 345 346 344 342 339 335 342 330 341 326 326 315 318 299 11 27 317 300 264 268 225 214 220 255 249 246 220 228 213 199 218 221 220 205 221 201 205 201
356 355 354 355 355 353 350 348 345 343 346 344 343 338 335 349 320 315 321 319 311 239 348 343 338 320 315 322 63 141 182 200 20 265 253 247 240 228 228 198 225 215 207 206 214 213 206
354 353 353 353 354 353 351 349 345 344 346 344 343 338 358 346 327 323 317 301 282 351 350 346 325 329 316 308 314 202 202 170 176 175 230 232 233 246 219 193 204 211 200 189 194 195 207
353 352 352 353 353 353 352 349 345 345 347 344 343 345 339 342 326 320 318 272 311 2 353 333 326 312 179 6 335 319 279 271 209 216 213 215 217 222 203 207 193 197 180 195 179 195 197
350 350 351 353 351 352 353 350 348 347 349 345 344 347 325 332 336 332 292 316 6 341 336 324 318 333 348 355 339 306 289 249 195 217 210 214 212 184 242 186 213 186 201 208 198 201 196
349 349 350 351 351 352 354 351 351 351 349 347 346 338 315 340 331 323 335 346 340 332 340 329 298 332 329 342 329 332 321 62 350 253 224 296 230 182 192 178 218 190 206 202 226 196 220
348 348 349 350 350 353 353 351 354 354 350 353 354 307 346 345 323 340 32 324 322 330 337 289 292 287 302 326 303 291 344 17 337 302 244 323 250 213 185 199 193 196 193 216 224 231 203
347 347 348 348 349 353 352 352 357 358 353 4 340 337 338 1 35 2 5 333 306 327 339 342 284 276 281 309 290 293 357 234 313 330 246 230 260 196 190 179 221 194 202 208 209 227 249
345 346 347 347 348 352 354 352 359 3 2 351 334 314 353 8 23 1 347 308 346 341 337 345 300 274 256 294 303 299 314 336 258 334 202 221 220 196 195 187 266 244 198 207 221 237 220
343 345 346 346 347 351 352 354 358 6 10 4 332 344 348 320 4 359 332 336 336 345 327 333 297 316 306 300 283 284 299 320 320 293 246 243 260 202 187 191 182 214 199 200 206 238 214
342 345 345 345 346 348 350 354 359 9 19 14 12 15 9 319 340 311 352 317 340 340 326 314 285 327 325 300 302 258 314 311 306 342 357 128 232 186 92 222 195 198 201 194 216 213 217
341 343 344 345 345 347 348 353 0 6 28 6 0 354 330 293 295 314 354 348 329 331 330 307 296 319 316 303 292 299 304 306 283 317 292 204 245 145 200 256 233 197 211 186 191 209 75
340 341 343 343 344 346 347 355 1 6 25 9 351 345 307 300 337 341 353 330 330 323 323 322 327 317 320 319 309 295 285 275 260 281 313 309 186 112 195 211 182 196 196 192 121 224 147
336 339 340 340 342 343 347 354 357 2 14 353 337 341 324 314 330 335 322 347 323 325 327 318 327 334 314 317 309 282 255 261 265 287 253 319 143 155 112 105 169 196 141 212 140 25 124
333 334 338 339 341 342 345 346 348 354 353 353 330 337 321 295 322 312 343 330 316 338 335 322 334 328 324 320 323 326 72 349 306 294 237 211 203 124 139 125 124 61 133 166 44 95 120
328 333 335 338 338 341 342 343 345 349 345 351 329 294 322 297 325 328 324 324 329 333 322 326 337 340 344 311 313 345 2 322 320 327 23 39 156 105 114 126 102 345 350 9 120 100 126
323 329 333 336 334 337 339 341 343 345 346 344 319 317 305 271 286 314 309 312 304 319 282 307 342 331 360 339 351 6 337 351 353 5 346 1 356 162 112 81 98 346 322 292 80 116 139
317 326 331 330 328 332 336 338 340 341 341 338 320 309 292 281 297 277 299 299 309 313 315 309 326 27 326 3 0 352 339 358 344 30 0 5 323 28 19 99 76 344 358 25 257 131 131
313 322 327 327 324 327 329 329 330 333 332 332 317 314 309 278 282 296 292 288 277 307 310 312 283 299 323 325 359 311 334 337 338 19 10 37 2 30 32 63 345 342 1 93 113 118 133